Regional Weather Roundup
Issued by NWS

Home | Current Version | Previous Version | Graphics & Text | Print | Product List | Glossary On
Versions: 1 2 3 4 5 6 7 8 9 10 11 12 13 14 15 16 17 18 19 20 21 22 23 24 25 26 27 28 29 30 31 32 33 34 35 36 37 38 39 40 41 42 43 44 45 46 47 48 49 50
000
ASUS43 KMKX 131259
RWRWI

WISCONSIN REGIONAL WEATHER ROUNDUP
NATIONAL WEATHER SERVICE MILWAUKEE/SULLIVAN WI
700 AM CST WED DEC 13 2017

NOTE: "FAIR" INDICATES FEW OR NO CLOUDS BELOW 12,000 FEET WITH NO
SIGNIFICANT WEATHER AND/OR OBSTRUCTIONS TO VISIBILITY.

WIZ001-002-006>008-014>016-023>028-131400-
NORTHWEST WISCONSIN

CITY           SKY/WX    TMP DP  RH WIND       PRES   REMARKS
SUPERIOR ARPT  LGT SNOW  19  17  91 E10       29.49R WCI   7
ASHLAND        LGT SNOW  16  13  88 NE7       29.50R VSB 3/4 WCI   6
HAYWARD        SNOW      18  13  80 NE8       29.42R VSB 1/2 WCI   8
SIREN          LGT SNOW  21  18  86 CALM      29.39F
CUMBERLAND     CLOUDY    21  16  79 SE8       29.36F WCI  12
RICE LAKE      CLOUDY    21  17  83 E7        29.38F WCI  13
CHETEK           N/A     20  16  83 E5        29.38F WCI  14
LADYSMITH      CLOUDY    19  15  88 E8        29.41F WCI   8
EAU CLAIRE     NOT AVBL
MENOMONIE      CLOUDY    22  17  79 E9        29.36F WCI  12
NEW RICHMOND   CLOUDY    21  16  80 NE7       29.37R WCI  12
OSCEOLA        PTCLDY    21  17  84 SE9       29.37F WCI  11
$$

WIZ003>005-009-010-017-018-131400-
NORTH CENTRAL WISCONSIN

CITY           SKY/WX    TMP DP  RH WIND       PRES   REMARKS
MANITOWISH WTR LGT SNOW  12  10  91 SE7       29.44R WCI   1
ARBOR VITAE    LGT SNOW  14  11  87 SE10G17   29.44S VSB 3/4 WCI   1
WOODRUFF       LGT SNOW  14  11  87 SE10G17   29.44S VSB 3/4 WCI   1
RHINELANDER    SNOW      11   8  88 SE14      29.45F VSB 1/2 WCI  -5
EAGLE RIVER    LGT SNOW  10   5  80 E13       29.46F WCI  -5
LAND O LAKES   LGT SNOW  10   7  85 SE9G20    29.49S VSB 3/4 WCI  -3
PHILLIPS       LGT SNOW  13  11  92 SE8       29.41S VSB 3/4 WCI   2
TOMAHAWK       LGT SNOW  12   9  88 E3        29.44F VSB 3/4
MEDFORD        FLURRIES  15  11  86 E8        29.40F WCI   4
MERRILL        LGT SNOW  13  10  87 E7        29.45F WCI   3
$$

WIZ029-030-035-036-043>047-131400-
CENTRAL WISCONSIN

CITY           SKY/WX    TMP DP  RH WIND       PRES   REMARKS
WAUSAU         LGT SNOW  14  11  87 E9        29.44F VSB 3/4 WCI   2
MOSINEE        CLOUDY    16  12  86 E13G18    29.45F WCI   2
MARSHFIELD     CLOUDY    17  14  88 E10       29.40F WCI   5
STEVENS POINT  CLOUDY    15  12  88 E13G18    29.47R WCI   1
WAUPACA        FLURRIES  20  15  81 E9        29.49F WCI   9
WAUTOMA        CLOUDY    20  17  88 E7        29.46F WCI  11
WISC RAPIDS    CLOUDY    20  15  81 E7        29.45F WCI  11
CAMP DOUGLAS   NOT AVBL
$$

WIZ011>013-019>022-031-037>040-048>050-131400-
NORTHEAST WISCONSIN

CITY           SKY/WX    TMP DP  RH WIND       PRES   REMARKS
ANTIGO         LGT SNOW  10   8  89 SE12      29.47F WCI  -4
SHAWANO        SNOW      17  13  85 E6        29.55F VSB 1/2 WCI   9
OCONTO         CLOUDY    17  14  89 E6        29.60F VSB 1   WCI   8
STURGEON BAY   LGT SNOW  19  16  88 E7        29.60F VSB 1   WCI  10
GREEN BAY      SNOW      19  14  81 E8        29.55F VSB 1/2 WCI   9
MANITOWOC      LGT SNOW  25  23  92 SE13      29.56F FOG     WCI  14
APPLETON       LGT SNOW  18  12  79 E9        29.48F WCI   6
CLINTONVILLE   NOT AVBL
OSHKOSH        CLOUDY    20  16  84 E12       29.47F WCI   8
$$

WIZ032>034-041-042-053>061-131400-
SOUTHWEST WISCONSIN

CITY           SKY/WX    TMP DP  RH WIND       PRES   REMARKS
LA CROSSE      CLOUDY    30  22  72 S9        29.35F WCI  22
SPARTA         CLOUDY    27  20  76 S5        29.40S WCI  21
VIROQUA        CLOUDY    25  22  87 SE12      29.35F WCI  15
BOSCOBEL       CLOUDY    29  19  66 S9        29.43F WCI  20
PRAIRIE DU CHI CLOUDY    30  20  66 SE5       29.41F WCI  25
PLATTEVILLE    CLOUDY    28  21  75 S14       29.45F WCI  17
$$

WIZ056-057-062-063-064-067-068-131400-
SOUTH CENTRAL WISCONSIN

CITY           SKY/WX    TMP DP  RH WIND       PRES   REMARKS
REEDSBURG      CLOUDY    27  17  68 S8G17     29.41F WCI  18
BARABOO/DELLS  CLOUDY    27  17  66 S10G18    29.42F WCI  17
LONE ROCK      NOT AVBL
MINERAL POINT  CLOUDY    28  21  74 S9G16     29.45R WCI  20
MADISON        CLOUDY    27  17  66 S14G28    29.43F WCI  16
MIDDLETON      CLOUDY    28  18  64 S10       29.44F WCI  19
WATERTOWN      CLOUDY    22  17  79 SE12      29.49F WCI  11
MONROE         CLOUDY    28  18  64 S18G25    29.46F WCI  16
JANESVILLE     CLOUDY    28  18  64 S15G24    29.50F WCI  17
$$

WIZ051-052-058>065-066-070>072-131400-
SOUTHEAST WISCONSIN

CITY           SKY/WX    TMP DP  RH WIND       PRES   REMARKS
MILWAUKEE      CLOUDY    23  18  81 S13G26    29.57F WCI  11
WAUKESHA       CLOUDY    19  14  79 SE16      29.53F WCI   5
MILWAUKEE/TIMM MIX PCPN  21  16  79 S14       29.57F WCI   8
RACINE         CLOUDY    24  17  74 S13G24    29.58F WCI  12
BURLINGTON       N/A    N/A N/A N/A MISG        N/A
KENOSHA        CLOUDY    25  12  58 S16       29.57F WCI  12
FOND DU LAC    CLOUDY    22  16  78 SE15      29.46F WCI   9
SHEBOYGAN      LGT SNOW  24  21  88 S15G23    29.54F FOG     WCI  11
WEST BEND      LGT SNOW  19  18  93 S8        29.53F WCI   9
JUNEAU         CLOUDY    21  16  79 SE18G24   29.48F WCI   6
$$

LSZ147-162-131400-
LAKE SUPERIOR

STATION/POSITION TIME  TEMP    WIND        PRES    WAVE
                       AIR SEA DIR/SP/G            HT/PER
                 (UTC) (F)     (DEG/KT/KT) (MB)    (FT/S)
DEVILS ISLAND    1200   21     100/ 18/ 21 1000.0F
SAXON HARBOR     1240   17                  999.0R
$$

LMZ867-665-643>646-131400-
LAKE MICHIGAN

STATION/POSITION TIME  TEMP    WIND        PRES    WAVE
                       AIR SEA DIR/SP/G            HT/PER
                 (UTC) (F)     (DEG/KT/KT) (MB)    (FT/S)
NORTHPORT PIER   1243   22     140/ 11/ 15 1003.7F
KEWAUNEE LAKESHO 1230   23     130/ 12/ 17 1002.1F
SHEBOYGAN LAKESH 1200   28     170/ 23/ 27 1002.8F
PORT WASHINGTON  1230   24     180/ 15/ 22 1002.7F
MILWAUKEE LAKESH 1230   22     190/ 15/ 20   N/A
KENOSHA   LAKESH 1200   25     190/ 15/ 21 1004.1
$$

TC  - TEMPERATURE IN CELSIUS
VSB - VISIBILITY IN STATUTE MILES
WCI - WIND CHILL INDEX
HX  - HEAT INDEX





USA.gov is the U.S. government's official web portal to all federal, state and local government web resources and services.